Theta_e
317 317 317 316 315 315 318 321 324 325 326 328 328 328 327 329 332 331 330 330 329 328 328 327 324 322 320 319 320 320 319 318 318 322 323 320 320 322 322 322 321 319 319 321 322 323 326 325 326 324 327 332 326 323 317 316 319 323 332 330 325 327 326 323 322 320 317 317 317 315 316 323 323 315 313 317 326 332 331 334 332 326 325 326 327 327 328 334
316 317 317 317 316 315 316 319 323 324 325 327 328 328 328 330 331 331 330 330 329 328 328 326 323 322 321 321 321 320 319 318 320 322 321 319 318 321 322 323 322 320 319 321 322 324 330 331 326 326 335 334 326 323 319 315 320 328 328 323 328 333 325 320 319 317 316 314 315 316 316 319 320 317 316 318 327 332 332 332 333 334 331 329 328 328 331 333
315 316 317 317 317 316 316 317 321 324 323 325 327 328 329 330 331 330 330 329 329 328 327 326 323 321 321 321 321 322 322 321 322 322 321 320 319 320 321 323 323 322 321 321 323 322 328 330 325 329 340 338 328 324 321 317 319 323 320 321 330 332 323 319 319 316 314 313 315 316 314 315 317 316 317 320 329 333 333 331 332 336 337 337 331 327 332 333
315 316 317 317 317 316 316 316 319 322 323 324 326 328 328 330 330 329 330 329 328 328 326 324 322 321 320 320 322 323 323 322 323 322 321 321 321 321 322 323 322 323 323 322 324 323 325 325 325 334 341 340 332 327 323 317 316 316 317 322 324 321 318 318 317 316 314 312 315 318 315 315 316 315 317 321 327 330 331 329 329 333 338 338 331 327 331 333
315 315 316 317 317 316 317 317 318 321 322 322 324 327 328 329 329 329 329 329 328 327 325 323 321 321 321 322 323 323 322 325 325 321 322 322 322 323 323 323 323 324 324 323 324 324 325 324 328 337 341 338 331 333 331 316 311 314 315 319 318 315 314 314 314 313 313 311 314 319 316 315 315 314 319 322 321 322 325 326 327 328 332 334 330 328 331 332
315 315 316 316 317 317 317 318 318 320 322 321 322 325 327 328 328 329 328 328 327 326 324 322 321 321 323 324 323 321 323 326 322 319 323 322 323 324 323 324 324 325 324 324 324 324 327 327 331 336 338 337 331 334 334 318 311 313 313 314 314 312 312 313 312 312 312 312 316 318 314 314 315 316 319 321 320 317 317 317 320 323 325 328 329 329 331 332
315 315 315 315 316 317 318 318 318 319 321 321 321 323 327 328 328 328 328 327 326 325 323 321 322 323 324 323 320 318 321 323 317 318 323 322 325 325 324 325 324 326 325 324 324 326 329 330 334 333 334 336 332 333 332 324 320 316 312 312 312 310 311 312 311 310 310 313 317 315 312 314 317 317 316 320 318 317 320 312 311 318 323 326 328 330 331 332
314 314 314 315 315 316 317 317 317 318 320 321 321 322 325 328 328 328 327 327 325 324 322 321 323 324 323 320 318 318 319 320 317 319 322 323 325 325 326 325 325 326 325 324 325 326 329 330 332 330 333 334 331 331 325 324 329 325 316 311 310 310 310 311 310 311 311 313 313 311 314 316 317 315 313 320 316 319 329 320 316 322 325 328 329 330 330 332
314 314 314 314 314 315 315 316 316 317 319 321 322 321 324 327 329 328 327 326 324 323 322 322 323 323 322 318 317 319 318 317 318 318 321 324 325 325 326 324 325 326 324 325 324 326 329 330 330 329 333 331 327 329 323 325 333 327 319 315 314 313 311 310 311 313 314 314 312 313 317 317 313 312 314 316 314 322 335 332 329 328 329 330 329 329 330 331
313 314 313 313 313 314 313 315 316 316 317 319 322 322 322 324 328 328 326 326 324 324 323 324 323 322 321 316 317 320 318 317 318 318 320 323 325 325 325 324 325 325 324 324 323 325 330 330 327 326 330 329 327 327 324 329 331 320 315 318 319 318 315 311 311 313 313 313 313 315 318 315 310 311 317 314 315 327 339 340 332 331 334 330 329 329 329 330
313 313 313 313 313 314 313 314 315 315 316 317 320 323 323 324 327 327 326 326 324 324 323 323 322 321 319 316 318 319 318 318 318 319 320 322 325 324 324 324 324 324 323 321 323 324 325 326 322 324 328 328 327 324 322 326 325 317 316 321 323 323 320 315 314 314 313 312 314 314 314 314 309 312 318 314 317 323 335 339 331 331 334 328 329 329 328 330
313 313 313 313 313 313 313 313 314 315 315 315 317 321 323 324 326 327 326 326 324 323 323 322 322 320 317 317 318 318 319 319 318 319 321 322 324 324 324 325 324 325 323 321 322 323 323 324 322 327 329 326 326 326 324 321 318 317 319 326 330 328 325 321 317 314 312 312 314 314 313 315 312 314 316 313 319 325 333 338 329 327 330 328 329 328 328 329
312 313 313 313 313 313 313 312 313 315 315 315 315 318 322 324 325 327 327 326 325 323 323 322 321 319 318 318 317 316 319 319 319 321 322 323 322 322 323 324 324 324 324 322 322 322 323 323 324 328 325 325 327 325 322 316 314 317 319 325 330 331 333 326 313 312 313 313 314 313 315 321 318 315 312 313 323 330 336 342 332 324 326 327 328 328 329 328
311 312 312 313 313 313 313 312 313 314 315 315 315 316 320 322 325 328 327 326 325 323 322 321 320 319 319 319 317 316 318 318 321 322 321 322 320 319 321 322 323 323 323 323 323 322 323 323 323 323 319 322 323 319 321 320 320 322 320 322 324 331 342 330 312 311 313 312 313 312 314 320 320 317 313 317 327 328 327 339 334 324 323 326 327 327 329 327
310 310 311 312 312 313 314 313 312 313 315 315 315 315 317 320 323 326 327 326 325 323 322 321 320 319 320 319 317 316 318 320 323 322 319 320 319 317 317 319 321 321 321 321 322 321 322 322 322 321 317 317 319 320 327 327 326 326 327 328 323 326 334 326 314 313 313 311 310 311 315 316 316 317 312 317 326 324 319 329 331 326 323 324 326 327 328 327
309 310 310 310 311 312 313 313 313 312 313 315 315 314 315 318 321 324 327 326 324 323 322 321 319 319 322 320 318 318 320 322 323 321 318 318 319 316 314 318 318 319 321 319 321 320 320 321 319 319 318 318 320 323 328 328 326 326 328 331 326 322 323 320 317 314 312 313 310 311 316 317 316 315 308 313 324 324 318 322 326 326 324 323 326 327 328 328
308 309 309 310 310 310 311 312 313 312 312 314 315 314 314 316 321 324 326 325 324 322 321 321 319 319 321 319 319 321 321 322 322 319 317 317 319 316 314 314 313 315 317 316 318 318 317 317 315 318 320 321 322 323 330 332 329 325 325 328 326 320 318 320 318 313 311 312 311 312 312 315 318 318 310 312 324 325 322 321 320 323 325 324 325 326 326 327
308 308 307 308 308 308 309 311 312 312 311 313 314 314 313 315 320 324 325 324 323 322 321 321 319 321 322 319 319 322 321 322 321 317 316 316 317 317 314 312 311 313 314 315 316 315 316 316 316 321 322 322 321 323 332 334 330 328 324 325 325 319 316 317 317 313 311 311 311 312 311 311 314 316 314 314 322 325 322 320 318 320 325 326 325 325 326 326
309 308 306 306 307 307 308 308 310 312 311 313 314 315 314 315 320 324 324 323 323 324 324 322 321 322 322 320 320 321 321 322 320 316 315 314 314 314 313 312 312 314 317 318 317 315 317 318 320 323 323 322 321 323 330 331 330 329 324 324 326 323 319 315 314 312 309 311 312 311 312 311 310 313 313 315 320 323 320 319 320 319 320 324 325 324 325 325
308 309 307 305 306 306 307 308 308 309 310 313 315 316 317 319 323 326 324 323 324 324 324 323 321 321 321 320 319 320 321 321 318 316 315 313 313 313 311 312 313 315 318 319 317 315 317 321 323 324 324 322 321 324 327 328 328 326 322 323 323 322 322 315 312 312 308 311 315 313 312 312 311 311 311 313 317 320 320 319 320 318 315 318 321 322 323 324
308 308 307 306 306 305 306 308 308 308 309 313 316 316 318 319 324 327 325 324 323 322 323 322 320 320 319 319 319 320 321 321 318 315 314 313 313 314 313 313 315 317 317 316 315 315 318 324 324 323 323 322 322 323 324 325 325 324 323 323 320 318 320 316 310 312 310 310 314 314 311 311 311 310 311 313 314 314 315 316 316 316 313 312 314 318 320 321
308 308 308 308 307 307 306 308 309 309 310 313 315 316 316 317 322 324 324 326 324 320 322 321 319 319 318 318 320 320 321 321 319 315 314 312 314 316 314 314 318 317 314 314 316 317 320 324 323 321 322 322 321 320 321 323 323 324 322 320 321 317 317 317 311 312 312 310 315 316 311 310 310 310 309 310 311 310 311 313 313 314 314 312 312 313 314 315
307 307 308 308 308 308 308 309 309 310 312 314 315 316 316 316 319 322 324 327 323 319 320 321 320 320 319 319 320 320 321 322 321 317 313 311 315 316 314 316 319 316 314 316 318 320 322 322 320 321 321 321 321 318 318 320 319 321 321 320 322 317 317 321 315 311 311 309 313 316 312 310 309 310 310 309 309 310 310 311 311 312 313 314 312 311 310 312
304 305 306 308 308 308 308 309 310 311 313 314 315 316 315 315 318 322 323 324 323 320 320 320 319 320 319 319 320 321 322 321 321 319 313 312 316 315 314 317 318 315 315 317 318 320 322 319 318 320 320 320 321 319 318 320 319 318 319 321 321 314 314 318 314 312 315 311 310 312 313 313 313 313 312 311 310 309 309 309 310 310 311 312 312 311 310 310
303 304 305 307 308 307 308 309 310 312 313 314 314 314 314 316 318 321 323 323 323 320 320 319 318 319 318 318 320 320 322 321 319 318 313 313 315 314 315 316 317 317 316 317 318 320 319 316 316 319 319 320 321 320 319 321 322 319 318 320 317 313 313 315 317 317 318 318 312 312 317 321 321 317 313 315 313 311 310 309 309 309 308 309 310 310 310 310
304 303 304 306 307 306 308 310 310 311 312 313 313 313 314 316 318 320 322 323 323 320 320 320 319 319 318 319 319 319 324 322 316 315 313 313 314 314 316 316 316 318 316 316 319 320 317 313 315 318 319 321 322 321 320 320 323 322 320 318 314 314 316 318 323 320 319 322 314 310 317 321 320 316 313 316 315 312 312 311 309 308 307 308 309 309 309 309
304 303 303 305 306 306 309 310 310 311 312 313 312 313 314 315 318 320 322 325 323 320 320 320 319 320 319 319 318 320 326 320 314 314 312 313 313 313 316 316 316 317 314 318 323 320 315 314 316 318 319 320 321 321 320 319 323 324 319 315 314 316 317 320 324 320 319 321 316 312 315 316 315 314 314 315 314 313 312 311 310 309 308 307 307 308 308 309
304 303 303 304 305 307 309 310 311 311 311 312 312 313 314 316 318 319 322 327 324 319 320 319 317 318 318 318 318 320 321 318 318 316 311 311 312 314 317 316 317 317 314 321 326 319 315 317 318 317 319 319 319 321 320 318 322 321 316 314 316 317 320 324 324 320 318 318 318 317 314 316 319 318 317 314 313 314 313 312 313 312 312 310 308 308 308 308
304 304 303 304 306 307 308 311 312 312 311 311 312 313 314 317 319 320 324 328 322 318 320 318 317 318 319 319 318 317 316 318 320 315 309 310 310 312 316 316 316 316 315 321 323 316 313 315 316 316 318 318 320 321 318 319 320 316 314 316 317 318 322 324 322 319 320 320 320 319 316 318 322 321 318 314 312 313 312 313 314 314 315 313 310 309 308 308
304 304 304 305 307 308 310 311 312 311 310 311 313 314 316 318 321 324 327 326 321 318 319 318 318 319 320 320 317 316 318 318 316 312 312 312 309 310 312 313 314 316 317 319 317 312 310 312 314 316 317 317 319 317 316 319 318 314 315 315 317 322 324 325 324 320 320 322 320 319 318 317 321 321 317 315 315 314 312 313 314 313 314 314 312 310 308 308
304 304 304 306 308 309 311 312 312 312 311 312 314 316 318 319 321 327 328 323 319 319 318 318 319 321 321 320 319 318 319 316 313 313 315 314 312 312 314 314 316 318 319 318 315 311 310 313 314 314 314 315 316 315 314 316 315 314 317 316 317 324 326 326 326 322 322 323 316 314 314 314 320 321 315 314 314 313 312 312 314 315 315 315 314 312 309 309
304 304 305 306 307 309 312 313 312 312 312 313 315 316 319 320 323 327 325 320 320 319 319 319 321 322 321 320 319 319 318 316 315 316 316 316 315 316 318 318 318 321 322 319 317 313 312 314 313 310 311 314 317 317 314 313 312 315 317 317 320 324 325 324 324 322 323 320 311 309 312 313 316 317 315 313 312 312 311 309 312 314 312 312 312 312 311 312
303 304 305 305 306 310 313 314 312 312 313 314 316 317 318 320 324 326 321 319 320 319 319 320 321 322 321 320 320 318 318 317 316 316 315 315 317 317 317 316 317 322 323 319 316 314 314 313 310 310 310 313 316 317 316 314 314 314 314 319 324 323 324 325 323 322 325 321 311 308 312 315 317 316 314 314 313 313 312 308 310 311 310 310 308 308 309 310
303 304 305 305 307 311 314 313 312 313 314 315 316 318 318 319 322 322 318 317 318 318 318 320 321 321 321 321 319 318 319 318 316 317 315 315 318 318 315 315 316 319 320 318 316 315 317 315 311 312 313 313 315 316 318 317 314 314 315 320 322 322 325 328 325 324 325 321 311 309 316 323 324 319 312 312 312 312 312 310 309 309 308 308 307 307 308 309
303 304 305 307 310 313 314 313 313 313 315 315 316 319 319 321 322 320 317 316 316 317 319 320 320 321 321 319 318 318 319 317 317 318 316 316 318 318 317 315 315 316 318 319 317 314 316 315 310 310 311 313 316 315 316 317 315 316 317 318 319 321 325 325 321 319 320 320 315 313 319 322 321 317 311 311 312 311 312 311 309 311 309 307 310 312 312 311
304 304 306 310 313 314 312 313 314 314 315 315 317 318 318 320 320 318 316 315 315 317 319 320 320 321 320 317 318 318 317 317 318 318 317 316 317 317 317 316 313 314 317 319 317 315 316 313 309 309 309 312 315 314 313 317 318 317 317 317 316 318 323 320 315 312 314 320 320 314 316 318 317 318 315 313 314 313 313 311 311 314 312 311 315 316 314 313
304 306 310 313 314 313 312 313 314 314 315 315 316 318 319 319 317 314 315 315 316 318 320 321 320 319 318 317 318 318 317 317 319 319 318 317 317 316 316 315 312 312 314 316 316 314 315 313 309 310 310 309 312 312 311 313 316 317 318 318 313 314 320 319 317 314 313 319 321 315 315 317 317 321 321 315 313 313 313 312 311 313 313 315 318 318 314 312
305 309 314 314 313 313 313 314 314 314 315 316 317 317 318 318 314 313 315 316 317 318 320 322 320 318 318 318 317 317 318 320 320 320 318 318 319 317 315 315 312 311 312 314 314 313 315 316 311 310 311 309 309 312 312 310 311 315 319 318 316 319 321 317 318 321 318 319 322 319 315 314 313 318 319 315 314 316 315 313 311 311 313 315 317 318 315 312
307 313 315 314 313 313 313 314 315 315 316 316 316 316 316 315 313 313 316 317 318 319 321 321 320 318 318 318 317 317 320 320 320 321 319 319 320 317 314 314 312 310 311 313 315 314 316 320 315 309 310 310 309 310 314 312 309 312 314 314 315 319 321 318 317 321 322 320 322 323 321 319 316 316 316 315 314 314 315 315 313 313 315 316 315 316 316 314
311 316 315 313 313 313 313 314 314 315 316 316 315 316 316 314 313 314 316 317 318 320 321 320 319 319 318 317 317 318 321 320 320 322 320 319 318 315 314 313 310 310 311 313 316 315 314 318 317 311 308 310 313 313 313 313 311 311 312 313 313 312 316 319 316 318 323 322 322 322 321 323 323 318 314 314 313 312 315 315 315 317 317 316 316 318 318 316
314 316 314 313 313 313 314 314 314 316 316 316 316 315 315 314 314 314 316 318 319 320 321 319 319 319 318 317 317 318 320 320 319 321 320 318 317 315 314 311 308 309 311 312 314 317 316 314 314 312 309 312 317 315 313 312 311 312 313 314 314 313 316 319 317 316 317 319 322 321 317 321 325 318 313 315 314 312 313 312 314 317 317 318 320 319 317 315
314 314 314 313 313 313 314 315 316 316 315 316 316 314 312 314 315 315 316 318 319 320 320 318 319 318 317 318 318 318 319 319 319 321 319 317 317 317 313 309 308 309 311 313 313 316 318 314 313 313 313 314 313 308 308 311 311 312 313 313 314 315 316 320 322 319 314 315 318 317 316 318 318 315 315 316 313 310 311 312 313 314 316 320 323 320 315 314
313 313 313 313 313 313 315 316 317 316 316 317 316 313 312 314 315 315 316 317 317 319 320 318 318 318 318 318 317 318 319 318 319 319 317 316 316 315 311 308 309 310 311 313 312 313 316 315 313 313 313 315 312 306 307 309 310 312 313 313 315 315 315 322 328 324 318 317 315 313 316 317 314 317 319 314 309 310 315 317 316 317 320 322 323 320 315 313
313 315 314 312 312 313 315 317 318 317 316 316 316 314 312 313 314 315 317 317 316 318 319 318 318 318 318 317 316 317 318 319 319 316 315 316 313 310 309 308 310 311 310 312 312 313 316 314 313 313 313 316 316 312 311 310 310 315 316 314 315 315 315 319 321 317 316 320 319 316 317 315 314 321 324 319 314 314 317 318 317 319 320 321 321 319 316 316
313 316 315 312 312 314 315 316 316 316 315 314 314 314 313 311 313 315 317 317 316 318 319 318 318 318 317 316 316 317 317 319 318 314 313 315 310 307 309 310 310 310 311 315 314 315 318 315 313 315 315 316 316 315 315 312 311 316 318 316 314 314 314 314 315 315 316 317 317 316 316 315 315 317 321 325 322 318 317 316 313 314 317 319 318 318 319 322
315 317 316 314 312 313 314 314 315 315 313 312 313 314 314 312 312 314 316 317 316 317 318 318 318 318 316 316 316 316 316 316 316 314 313 313 309 306 308 310 311 311 315 319 316 317 321 317 313 315 315 315 317 317 315 313 313 315 315 314 312 312 312 313 315 316 316 315 315 315 314 316 318 318 320 326 323 317 316 313 312 315 319 320 319 320 321 322
315 316 316 316 314 314 314 314 315 315 313 312 312 312 314 314 312 313 315 315 314 316 317 316 317 317 316 316 316 316 315 315 315 314 313 312 310 308 308 310 312 314 318 318 314 317 320 316 314 316 314 316 321 320 315 313 313 314 313 313 313 312 312 314 315 315 315 316 315 315 314 314 317 318 319 321 318 314 313 312 311 313 315 314 314 316 317 316
314 316 315 316 316 315 314 313 313 315 313 312 312 312 314 315 313 314 315 313 313 316 316 316 316 317 316 316 317 316 315 314 314 313 312 310 309 309 309 310 312 314 316 314 311 314 317 314 314 313 313 317 320 316 314 314 313 313 313 313 313 312 312 313 313 314 315 315 314 316 318 316 314 315 315 315 315 313 312 312 312 313 313 311 310 311 311 309
313 315 314 314 315 314 313 312 312 314 314 313 312 312 314 316 315 315 313 311 313 316 316 316 317 316 316 317 317 316 315 315 314 313 311 310 309 310 309 310 312 312 312 312 311 313 314 313 313 314 314 315 315 312 312 314 314 314 314 313 312 312 312 312 312 312 314 314 313 317 319 315 314 316 316 314 314 314 314 314 314 314 314 314 313 312 311 310
313 315 313 315 316 313 312 311 312 313 314 313 313 312 314 315 315 315 313 312 314 316 315 316 316 316 316 317 316 316 315 315 316 313 311 310 310 310 310 311 312 310 310 311 309 313 316 312 312 317 315 311 311 312 313 313 314 314 314 313 312 312 311 311 312 312 313 313 311 313 315 313 313 316 315 312 313 315 315 313 312 312 313 314 314 313 312 311
311 313 312 313 315 313 311 311 312 314 314 313 313 313 313 315 315 315 314 313 314 316 316 316 316 315 316 316 316 316 314 315 316 312 310 311 311 310 311 312 311 309 311 311 310 315 320 313 310 316 315 310 310 314 314 312 311 313 315 313 312 311 311 311 311 312 312 312 311 312 313 312 312 314 312 310 312 313 312 310 311 311 312 312 312 311 311 311
309 313 314 314 315 313 312 312 313 314 314 314 313 313 314 315 314 314 314 313 313 315 316 316 315 315 315 316 317 316 315 315 314 311 310 310 310 310 310 310 309 310 311 313 313 316 319 315 312 315 315 312 311 314 316 313 311 312 314 313 311 311 311 311 312 312 311 311 312 313 312 313 316 314 311 312 313 312 311 311 311 310 310 311 311 310 311 310
Wind_Speed
16 16 16 16 17 17 19 22 19 18 22 23 24 27 29 30 32 34 33 29 26 25 27 28 27 25 23 22 22 22 20 19 20 21 19 20 21 14 11 12 15 18 15 12 10 9 8 9 8 8 8 5 4 2 5 5 1 3 3 2 1 2 2 3 5 4 1 2 3 2 3 4 3 2 1 0 3 3 1 2 2 2 3 3 3 2 12 25
16 16 16 15 16 17 17 20 21 19 21 22 23 26 29 31 32 33 31 28 27 27 28 29 29 27 25 23 22 21 22 24 21 21 27 25 20 17 13 13 15 16 15 12 9 10 9 6 9 11 6 3 1 1 3 3 2 2 2 2 3 4 3 3 3 3 1 2 4 3 2 3 4 3 3 2 1 2 2 3 3 3 3 2 1 7 19 25
17 16 16 16 15 16 17 18 21 21 21 23 24 26 29 32 32 32 31 28 28 28 29 29 30 30 27 24 22 23 24 21 15 20 31 27 20 20 16 15 15 16 15 12 9 8 9 10 13 11 4 3 1 1 1 1 2 1 3 1 4 4 2 2 2 3 4 2 3 4 0 2 4 3 3 3 2 2 5 5 3 4 6 3 4 13 20 22
17 16 16 16 14 16 16 17 19 21 21 22 24 26 28 32 33 32 31 30 29 30 29 28 29 28 27 25 24 27 21 9 8 18 28 26 22 21 18 17 16 15 15 12 10 9 12 15 12 7 4 3 2 2 2 1 2 1 2 3 4 3 1 3 5 4 4 4 1 2 0 2 3 3 2 5 4 3 7 8 9 10 9 8 8 15 19 20
17 16 15 15 15 15 15 16 17 20 23 22 23 26 28 30 32 33 33 32 31 31 29 27 28 27 26 25 26 27 17 2 8 19 25 24 22 21 20 19 17 15 15 13 12 14 16 14 8 5 3 2 1 2 1 1 1 1 1 3 4 2 1 4 5 4 3 3 2 1 1 3 2 2 3 7 6 6 6 7 10 9 9 11 12 17 19 20
17 16 16 16 15 15 15 16 16 19 23 24 24 24 29 32 32 33 34 34 33 32 31 28 28 27 27 27 27 26 15 2 4 17 25 24 22 20 20 19 18 16 15 16 19 18 14 9 6 4 3 2 3 3 2 0 0 2 1 1 2 2 2 4 3 4 3 4 4 3 2 1 2 3 3 8 10 5 2 5 7 7 11 14 15 18 17 18
16 17 17 16 16 16 15 15 17 18 20 24 26 23 27 33 35 35 35 36 34 34 32 30 29 29 30 29 24 17 10 4 2 14 26 25 22 21 21 20 19 17 18 21 20 14 9 7 5 4 4 3 4 4 2 1 3 2 2 2 2 3 3 4 3 3 4 5 5 3 1 1 4 4 1 7 12 4 2 4 4 8 15 17 15 16 17 19
16 17 17 16 16 17 17 16 16 17 17 22 26 24 25 31 37 38 38 36 34 35 33 32 33 31 32 26 16 7 6 6 1 13 25 25 24 23 22 21 19 18 21 23 20 13 8 8 6 4 4 2 4 4 3 3 3 1 3 1 1 2 4 6 4 4 4 5 3 2 2 4 6 3 1 9 11 4 1 2 6 8 13 14 13 15 17 19
16 17 17 17 17 17 18 17 17 18 17 19 25 27 26 30 38 38 38 38 36 36 34 36 36 32 30 20 9 4 8 9 3 10 25 27 26 26 24 22 21 20 21 21 22 18 9 5 6 4 4 2 4 5 4 4 1 4 5 1 2 3 5 5 4 3 3 3 3 3 3 5 3 1 4 10 8 5 3 5 6 8 10 10 11 14 17 17
17 17 18 18 17 17 18 19 18 19 18 18 22 26 26 29 39 40 39 39 37 37 36 37 36 32 27 16 7 6 10 11 6 9 22 27 26 26 24 23 23 21 19 16 18 18 8 6 8 5 5 3 3 4 5 6 2 3 4 1 4 6 6 3 3 4 3 3 5 5 3 4 2 0 5 6 2 4 6 5 4 7 9 10 9 11 16 17
16 17 18 18 18 18 18 20 20 19 20 20 20 22 24 27 37 43 40 40 38 38 39 36 35 32 23 13 8 7 7 11 10 8 19 26 27 26 24 24 24 22 19 13 15 16 10 13 14 6 3 2 4 3 2 4 3 4 4 1 5 6 6 4 4 5 3 2 6 6 1 3 2 1 6 3 1 3 6 5 5 7 7 8 9 9 12 15
17 17 17 17 18 18 18 20 20 20 20 21 21 21 22 26 35 42 40 41 40 39 40 37 35 31 19 8 8 7 4 9 12 10 17 24 26 24 22 23 23 22 20 13 14 14 11 18 18 6 2 5 5 2 2 3 4 4 3 1 5 5 5 6 4 2 1 2 6 6 1 3 2 7 8 1 2 3 5 5 5 6 6 6 8 7 9 13
17 17 16 17 17 18 18 20 21 21 20 21 22 22 22 24 31 41 40 42 43 41 41 37 33 30 18 4 6 9 6 8 14 14 18 23 23 21 20 23 21 19 19 16 17 15 12 19 17 6 3 5 3 2 3 3 3 3 3 1 2 5 5 6 2 1 2 2 4 4 3 4 6 12 8 1 3 6 5 5 5 6 6 5 6 6 7 11
17 17 17 17 17 18 18 20 21 21 21 21 22 23 22 22 28 40 42 42 44 42 42 38 32 26 14 3 4 11 9 9 16 20 22 24 22 18 18 21 19 16 15 14 17 15 13 18 14 7 3 2 3 3 4 3 2 2 2 1 1 0 4 5 1 3 4 2 2 2 5 5 7 12 7 4 5 7 6 7 6 6 6 6 5 7 7 10
17 17 17 17 18 18 18 19 21 21 21 22 22 23 22 20 24 35 42 43 43 43 41 37 31 20 7 2 4 13 14 12 18 23 25 26 23 15 14 17 14 13 12 11 14 14 16 16 11 6 1 1 4 4 3 2 2 2 2 1 1 2 4 6 1 5 4 1 3 3 4 5 8 9 4 3 5 6 8 7 6 7 7 7 6 7 7 8
17 17 17 17 18 19 19 20 21 22 22 22 23 23 22 21 21 30 42 42 41 43 38 28 25 17 5 3 6 12 13 12 19 23 23 25 23 16 15 16 12 11 11 11 16 17 16 12 5 3 3 2 3 4 3 2 1 2 1 2 1 3 2 4 2 2 2 1 2 5 4 3 5 6 4 1 4 5 6 7 6 6 6 7 6 6 7 7
18 19 18 18 18 19 20 21 21 22 22 23 23 22 23 21 21 30 41 42 40 43 38 26 24 14 3 5 8 11 10 11 20 24 22 23 22 22 20 14 11 14 14 14 16 13 9 5 1 1 3 2 3 4 3 3 2 0 1 3 2 3 2 2 2 2 3 2 2 4 5 6 6 6 4 1 5 5 6 8 6 5 5 5 5 6 7 8
18 20 20 20 20 20 21 22 23 23 23 24 23 21 23 22 25 33 40 41 39 37 29 21 22 11 3 9 8 8 14 17 23 24 22 21 22 25 19 11 11 16 14 9 7 5 3 2 1 2 2 2 3 5 5 5 5 5 4 3 2 1 1 2 2 1 3 2 2 3 5 9 10 10 8 4 5 6 8 8 6 6 6 6 6 7 7 8
18 19 21 22 22 22 23 23 24 25 24 24 23 22 21 20 23 32 39 36 25 18 13 12 17 7 2 10 8 11 19 23 24 22 21 22 23 22 16 15 13 11 9 5 2 3 2 2 2 4 4 5 6 7 7 5 7 8 5 4 2 2 2 3 3 2 2 1 4 6 6 8 9 11 12 5 4 6 6 5 5 6 6 6 7 7 8 9
20 20 22 24 24 24 25 25 26 26 26 25 23 17 12 11 11 14 23 24 16 12 12 17 19 7 6 9 12 17 20 23 20 16 23 26 25 20 12 11 9 4 6 7 5 3 3 4 4 5 6 8 10 7 5 4 6 7 5 3 3 3 4 3 3 3 2 1 5 5 6 9 9 11 14 5 3 5 7 6 7 7 6 7 8 8 9 10
20 21 22 25 26 25 26 27 27 27 28 27 24 13 5 11 9 4 9 13 17 15 13 21 20 8 7 13 22 24 14 13 14 14 25 28 23 18 8 8 9 4 4 7 7 3 3 6 6 6 7 9 9 6 6 6 6 6 6 4 3 3 4 3 2 4 2 2 4 4 4 9 10 12 13 7 4 7 9 8 9 9 8 7 7 10 10 9
22 22 22 25 26 25 26 28 29 29 28 29 26 12 8 16 13 7 12 9 13 11 11 23 18 7 9 17 29 30 11 6 11 13 23 23 17 14 7 8 11 7 6 7 7 5 4 6 7 7 7 8 7 6 6 6 6 5 4 4 3 2 3 4 2 4 3 2 3 5 4 8 10 11 13 11 7 8 9 9 10 10 9 7 9 11 10 8
23 22 23 24 25 26 26 28 30 29 29 29 25 18 20 26 19 11 11 5 5 4 8 24 20 10 12 11 22 27 12 7 12 15 23 21 12 10 9 10 11 8 9 10 8 8 5 5 8 7 7 9 6 5 6 5 4 3 4 5 3 2 1 2 3 4 3 2 3 5 5 8 8 8 12 11 8 8 9 10 10 8 9 10 10 8 9 10
24 24 24 24 26 26 24 28 29 29 33 32 31 34 34 27 22 18 9 2 3 2 7 21 19 14 14 12 21 23 12 8 10 16 24 20 10 8 9 11 12 10 9 11 11 8 3 2 8 8 7 11 7 5 7 5 2 2 4 5 3 3 4 3 2 4 3 2 2 3 6 8 6 8 12 7 3 7 8 8 10 9 9 10 7 6 8 10
26 27 26 26 27 27 27 26 25 31 33 30 36 43 38 25 22 24 10 1 4 1 7 17 10 11 16 17 20 14 8 7 5 14 22 19 14 9 7 5 7 11 11 12 10 6 2 2 8 10 7 9 8 7 7 7 5 2 4 6 7 7 5 1 2 4 3 3 2 3 3 7 4 5 9 4 2 7 6 7 11 10 9 8 8 9 9 10
29 29 28 29 28 30 26 15 24 35 26 26 41 42 36 30 26 23 7 2 6 2 8 16 8 15 20 15 14 8 8 7 3 14 21 18 14 8 8 4 1 7 12 9 6 2 1 2 6 10 8 8 8 6 7 8 6 2 4 6 7 7 6 3 3 3 1 4 3 2 2 6 6 7 8 5 6 8 7 8 10 9 8 7 9 10 9 10
30 31 32 31 30 30 20 11 26 31 18 27 45 40 35 35 29 19 6 4 7 4 9 10 6 22 23 15 18 11 8 8 6 13 17 14 11 3 8 10 3 5 6 5 3 2 5 7 6 8 8 7 7 6 6 8 6 2 4 9 8 6 5 4 4 2 3 3 3 1 2 4 7 7 6 5 8 12 10 10 9 7 9 9 10 11 10 11
31 34 34 33 33 31 25 24 26 23 29 41 43 38 35 34 27 14 5 6 6 5 8 4 5 20 18 15 19 8 5 13 11 11 12 10 8 1 6 12 10 11 7 6 7 1 6 12 11 11 9 6 6 5 7 8 4 3 5 8 7 6 5 4 4 2 1 2 3 1 2 3 7 6 4 2 8 14 11 9 9 8 10 11 11 12 12 12
32 35 35 36 35 32 36 38 29 30 51 51 37 38 37 32 21 6 4 7 4 4 7 7 8 15 15 14 12 5 5 8 5 7 6 6 3 2 5 7 10 14 5 3 6 1 1 7 10 11 8 6 5 6 10 10 3 2 6 5 4 4 4 3 3 2 2 2 4 3 3 3 7 6 3 1 6 11 9 7 9 9 10 11 10 11 12 11
33 34 36 36 31 32 36 38 42 51 58 45 35 37 33 22 12 5 8 7 5 2 5 8 8 14 21 17 6 7 10 3 3 8 3 1 2 4 4 4 7 9 3 6 5 1 3 1 3 5 4 5 5 4 5 8 7 7 6 5 5 3 4 3 1 3 1 4 3 5 7 4 5 5 5 5 5 7 7 6 8 8 9 10 10 10 10 9
34 34 37 34 31 33 26 25 47 59 49 40 37 33 23 10 7 7 8 4 5 5 6 9 12 17 23 19 9 10 12 5 8 13 6 3 4 5 7 5 4 5 3 3 3 3 4 3 1 1 2 5 7 4 3 3 8 9 5 4 4 2 4 3 3 2 2 4 2 3 5 6 7 5 3 6 5 4 6 6 8 10 9 9 9 8 7 6
35 36 37 36 38 38 30 35 53 53 44 44 37 22 11 7 9 8 4 4 5 8 10 12 17 21 22 19 13 13 14 9 11 14 11 9 7 9 10 8 7 6 5 6 3 2 3 1 2 1 1 4 8 5 4 2 5 5 5 7 5 2 1 1 1 1 4 4 1 2 2 3 10 8 4 8 9 8 9 8 8 9 9 9 7 6 5 4
37 37 37 40 43 41 48 56 56 51 50 48 29 10 8 8 9 6 6 5 5 8 12 14 19 24 25 18 12 14 14 11 13 13 10 9 8 8 5 5 10 6 4 9 6 4 1 4 3 3 1 3 9 9 4 3 6 5 6 7 5 3 2 3 3 1 3 3 1 1 2 3 9 6 5 11 12 10 8 7 8 8 9 10 8 7 6 6
38 37 38 44 45 47 61 56 51 56 54 39 17 8 12 10 5 7 8 5 6 11 13 15 19 24 24 17 14 15 10 9 16 15 11 10 8 9 5 7 11 4 5 8 4 6 6 2 5 7 3 4 7 7 6 6 5 4 4 4 3 4 3 4 4 2 3 2 2 1 1 3 4 3 4 8 8 8 6 5 6 7 8 8 7 8 8 8
36 38 44 44 42 53 62 51 53 62 48 24 10 9 13 11 4 5 7 5 8 11 13 16 21 20 15 11 15 15 4 6 16 13 11 13 11 13 11 12 13 7 7 9 3 4 5 2 3 2 3 10 10 6 6 9 5 2 1 2 2 3 3 2 3 3 3 1 1 3 3 4 4 6 8 7 7 6 6 7 6 7 7 5 6 8 8 8
34 41 41 35 40 54 57 51 59 60 37 16 9 9 10 8 4 3 6 10 11 15 17 15 16 15 9 5 12 12 2 6 18 12 8 11 9 12 12 9 12 11 10 9 4 4 4 0 2 3 2 9 10 9 9 8 6 3 3 5 4 3 6 4 2 0 3 2 3 2 5 5 4 7 9 7 8 8 7 6 5 7 6 4 6 7 7 8
31 31 24 29 41 53 55 55 60 50 27 14 11 10 9 7 3 3 8 14 17 21 21 15 10 9 9 6 7 9 8 9 14 10 7 9 7 11 12 9 11 14 11 6 3 3 6 3 3 2 3 4 1 6 6 1 4 6 6 6 4 3 3 4 1 2 3 2 3 1 5 5 2 5 5 6 5 9 10 6 5 6 5 4 7 7 7 7
27 20 17 27 44 55 57 59 54 35 15 11 13 12 8 6 5 7 10 15 20 21 18 12 7 5 10 12 6 10 15 13 11 9 9 8 6 12 17 11 10 15 11 5 3 3 6 5 3 2 3 1 2 6 5 2 1 4 5 6 5 3 2 2 2 1 1 2 4 3 4 4 4 5 6 7 6 8 10 8 5 6 5 5 6 7 9 8
21 14 10 29 53 58 60 59 41 21 12 10 14 14 5 4 9 11 13 15 18 17 14 11 9 6 9 14 13 13 16 14 14 12 10 9 5 10 19 11 7 15 12 5 5 3 4 5 1 2 1 1 1 4 6 3 1 3 2 4 3 2 3 4 3 3 3 2 2 3 4 3 6 5 5 11 11 8 9 9 5 5 5 5 5 6 8 8
13 8 6 35 59 59 62 51 24 13 11 9 14 12 4 5 10 14 16 18 14 8 10 13 13 11 11 13 14 14 12 13 17 12 9 11 5 6 16 12 9 14 10 5 6 3 3 4 4 0 1 2 3 3 7 9 6 4 5 6 5 2 2 2 2 2 3 3 2 2 4 5 5 4 7 10 10 9 10 10 8 6 4 4 5 6 6 7
11 5 7 39 61 60 51 29 11 10 8 10 16 10 4 7 12 15 18 18 12 2 5 14 17 15 15 14 12 11 10 11 15 10 5 10 7 4 12 14 14 16 10 5 7 5 2 4 6 4 2 4 4 3 5 8 8 7 6 7 8 5 4 3 1 1 2 2 4 2 5 7 5 4 6 8 8 8 7 7 8 7 6 6 6 6 6 7
10 3 12 43 63 56 32 10 9 11 8 12 13 6 5 7 12 18 16 12 8 2 4 10 14 15 16 16 15 12 11 10 14 12 6 10 12 6 8 15 17 16 10 6 6 5 3 5 6 4 3 4 4 4 1 3 4 5 2 3 5 4 4 6 3 2 0 2 2 3 3 7 5 5 6 7 5 4 2 3 6 7 6 7 8 7 7 7
8 6 19 49 66 49 20 8 13 13 10 12 10 8 9 7 11 18 16 11 6 3 6 7 8 11 12 14 16 14 12 10 12 10 4 5 7 4 11 19 20 16 10 7 7 5 4 5 5 3 0 3 3 2 1 3 2 4 1 1 4 4 4 4 4 4 2 3 3 3 3 7 5 3 5 5 4 4 3 4 5 7 6 6 7 7 7 7
7 6 13 39 58 41 15 10 13 12 13 14 11 12 11 7 12 18 17 14 7 5 10 9 7 9 9 13 17 17 15 9 7 6 2 4 4 5 16 23 21 18 10 7 10 6 3 3 4 6 3 3 3 2 2 1 3 3 2 3 5 7 7 4 3 4 3 7 9 5 6 7 4 3 3 3 3 4 6 5 5 6 6 6 6 6 7 7
6 6 7 19 34 26 10 11 14 13 14 16 15 15 12 6 10 16 18 15 9 10 13 12 14 13 10 13 14 15 13 6 5 7 2 3 3 4 16 24 23 18 8 8 11 7 4 5 5 8 8 7 7 6 5 5 4 2 5 10 12 13 14 8 4 5 7 8 12 10 8 3 3 4 4 5 5 6 8 6 4 6 7 6 5 6 7 6
6 8 7 8 14 13 9 11 14 13 14 15 13 13 15 11 7 12 17 12 8 11 11 10 15 15 13 15 14 13 11 2 3 8 6 7 5 1 12 21 18 13 11 15 15 7 4 5 6 10 11 10 8 5 6 11 10 8 10 14 13 12 13 8 4 5 6 4 7 13 10 3 5 5 5 7 6 6 8 7 6 6 6 6 6 6 7 6
5 8 10 10 9 10 11 10 13 13 13 15 11 9 16 19 11 11 10 4 3 8 8 9 15 15 16 19 14 13 12 5 5 10 9 7 5 3 10 15 13 13 15 16 13 6 5 6 10 11 7 2 3 5 10 16 16 16 14 14 13 12 13 13 11 9 6 5 7 10 7 7 9 7 8 9 7 9 10 7 6 6 6 6 6 6 7 8
3 7 12 15 13 12 13 12 14 16 16 16 10 8 17 22 19 14 7 1 4 9 8 10 17 21 24 24 16 13 14 7 6 10 9 7 6 7 10 9 9 15 18 14 10 6 6 7 10 10 4 4 5 6 12 15 12 11 13 16 16 16 17 19 20 13 9 7 12 6 9 11 10 7 11 10 9 11 11 7 7 8 8 8 7 7 8 9
3 5 5 9 11 16 17 14 14 17 20 18 10 8 17 23 22 17 8 4 7 10 11 13 18 21 24 23 17 14 15 12 9 10 11 13 13 12 12 7 5 7 11 12 8 3 4 4 3 8 6 5 6 4 8 10 8 7 11 15 17 19 22 23 23 16 11 17 15 3 2 11 7 7 11 9 7 8 6 5 6 8 10 11 9 10 10 9
4 6 7 7 8 14 18 16 15 15 15 16 11 9 14 20 22 17 11 12 14 12 13 18 20 21 24 24 18 17 24 25 23 20 17 17 15 13 12 8 4 5 6 9 6 1 2 3 1 6 6 5 5 5 5 6 9 8 10 14 17 21 21 19 17 10 10 18 13 3 11 14 6 8 10 5 4 6 8 10 10 8 10 10 10 11 11 12
1 1 9 12 11 16 17 13 15 15 12 13 13 12 14 18 20 17 11 12 16 17 19 24 26 20 19 23 23 25 30 30 27 26 24 22 19 14 9 5 9 11 7 7 5 2 4 2 1 6 6 1 1 5 6 5 5 4 11 18 20 18 15 13 11 10 13 16 9 5 14 13 6 7 7 4 6 11 14 15 13 11 10 10 11 13 13 13
1 4 4 10 12 16 16 12 13 14 11 11 13 14 16 17 19 19 12 6 8 13 17 24 29 21 17 24 27 23 19 15 12 14 15 14 13 10 9 12 18 17 12 8 5 3 6 5 3 6 6 4 4 7 7 6 4 5 14 18 18 15 12 10 11 15 17 13 9 10 15 10 5 6 6 7 11 13 13 13 12 12 11 11 12 13 13 13
Wind_Direction
238 238 239 233 231 238 231 225 229 233 227 225 227 221 218 215 208 204 201 200 203 205 203 202 203 204 201 195 187 185 194 209 227 231 225 227 225 219 209 200 189 182 173 159 142 122 94 72 91 101 99 78 27 358 351 344 85 51 73 107 207 176 198 178 174 202 173 335 316 270 217 181 203 208 182 59 44 55 83 286 296 298 264 252 295 324 164 167
237 236 239 236 229 235 235 227 226 232 229 225 227 222 217 213 209 203 201 202 203 206 204 201 201 201 200 199 201 200 199 209 220 229 232 230 225 223 218 205 196 188 181 176 164 131 105 84 104 100 78 54 26 12 359 332 58 72 118 125 213 196 207 189 174 212 211 327 305 278 203 188 212 173 150 201 270 62 135 254 314 317 270 301 29 145 158 163
239 237 237 236 230 232 236 231 226 229 230 226 224 221 216 213 211 204 202 205 205 206 205 201 200 200 200 199 203 202 193 197 211 229 231 227 222 220 215 209 201 195 194 191 190 164 137 137 121 102 65 55 91 37 69 322 360 131 137 153 230 211 221 228 216 222 213 229 300 298 137 179 231 178 161 190 190 150 199 222 205 230 229 204 155 151 157 163
239 239 236 235 231 231 236 235 231 229 228 226 223 221 217 210 208 206 203 205 205 205 204 200 198 197 198 200 199 192 180 181 219 226 224 216 213 212 206 204 198 195 195 188 189 181 150 134 115 92 82 74 6 38 127 256 335 140 149 195 215 179 175 215 210 216 212 189 211 295 159 237 229 177 183 160 150 234 234 219 202 211 198 178 171 162 164 168
236 237 237 236 231 231 236 236 235 233 228 227 227 224 218 210 204 203 203 204 204 203 202 198 195 192 193 193 187 178 162 150 229 216 213 205 203 202 197 197 194 190 186 178 160 148 141 129 105 70 74 101 74 73 164 231 88 141 188 182 179 148 200 233 209 203 204 166 139 117 217 234 164 175 187 165 191 232 231 219 210 208 179 170 170 167 170 174
234 235 235 235 232 228 232 236 236 236 232 227 230 228 221 216 207 203 203 202 202 200 200 195 191 190 186 179 173 171 166 196 224 197 198 195 190 187 185 185 183 182 178 166 147 136 132 119 107 108 94 103 154 171 170 259 71 171 183 193 200 177 224 248 215 204 185 137 155 177 223 173 135 254 196 181 217 219 227 234 216 197 168 168 166 165 173 179
232 235 234 234 231 227 227 234 234 236 235 227 229 231 223 216 209 206 203 200 199 198 196 191 188 185 176 168 169 175 187 243 272 180 185 185 182 173 170 171 167 172 171 153 140 135 129 122 125 131 119 105 177 189 126 36 5 88 156 237 220 181 229 250 249 236 184 173 203 177 141 153 194 239 111 210 226 208 285 268 197 173 156 159 163 171 180 183
232 233 235 235 232 231 228 230 234 235 236 226 225 231 228 216 208 204 201 199 198 196 193 187 184 177 170 167 167 178 213 231 209 173 177 176 178 169 163 163 160 166 164 153 145 140 127 129 138 135 141 149 166 164 117 82 22 94 176 222 188 184 249 268 277 259 206 203 214 125 190 227 210 194 130 240 234 204 269 82 129 143 145 158 169 180 187 187
233 233 235 237 234 233 232 232 235 235 237 230 224 228 232 220 207 201 199 198 194 192 190 185 181 175 173 167 145 171 212 207 159 168 176 174 175 174 169 164 163 164 157 155 152 144 131 142 161 155 142 144 152 143 148 160 218 206 181 301 303 276 278 292 290 250 220 217 148 145 256 268 240 233 258 252 235 186 124 89 123 136 150 173 177 184 188 189
235 234 234 237 235 234 235 236 236 235 238 234 227 229 233 225 210 201 198 196 192 189 186 184 180 174 173 162 138 187 207 203 188 168 180 180 176 175 175 168 168 166 152 149 153 148 147 160 158 143 112 107 162 136 160 185 183 163 147 235 276 289 291 293 300 276 259 233 168 174 264 288 293 326 256 272 262 165 129 106 146 153 171 185 183 190 190 192
236 235 235 236 236 235 233 237 238 236 237 236 234 229 230 229 212 199 197 196 192 188 185 183 179 174 170 160 171 198 196 201 202 177 182 187 180 176 176 170 169 168 155 148 162 165 164 154 140 120 112 118 137 123 195 192 112 107 120 225 271 298 297 274 289 287 288 248 183 160 220 302 2 233 237 270 19 157 142 145 169 177 190 190 190 194 194 200
235 233 235 235 236 236 233 236 238 237 237 236 237 231 228 233 213 196 194 196 193 189 186 183 181 176 164 161 197 201 184 197 196 180 183 186 180 177 176 173 175 176 168 161 174 177 165 157 143 118 178 142 125 137 227 177 102 110 119 244 288 333 312 271 273 271 321 270 187 147 14 293 219 229 237 217 115 118 126 165 189 199 205 197 198 195 199 205
235 232 233 235 236 237 234 235 238 237 238 236 238 236 232 237 215 195 193 196 193 191 187 181 180 174 165 176 204 195 190 188 184 174 177 181 175 171 172 173 176 181 179 176 179 179 169 165 154 129 128 130 136 155 119 90 85 109 101 134 314 354 307 275 292 181 194 215 185 168 271 267 237 240 240 165 145 125 136 199 200 210 215 206 205 200 206 203
237 237 234 233 235 236 236 236 238 237 237 237 239 238 234 242 224 198 193 194 191 191 186 180 177 172 173 180 174 197 196 177 182 173 170 176 168 159 165 170 173 178 182 183 179 176 170 162 143 108 80 95 144 127 82 44 47 111 114 114 38 12 270 287 337 155 193 200 132 190 247 261 263 258 239 191 175 158 192 219 202 213 217 214 212 207 214 207
240 241 238 236 234 235 236 237 240 239 239 239 238 238 236 245 236 205 194 192 188 186 181 177 176 166 169 207 173 196 188 171 182 176 172 175 166 153 159 166 169 174 180 183 174 164 159 151 125 106 103 31 123 110 73 45 32 61 154 225 3 184 268 302 244 175 204 250 107 170 239 264 263 269 269 180 179 182 212 223 209 217 215 216 218 211 220 219
241 241 240 240 237 237 238 237 242 241 240 241 239 240 237 244 244 213 197 189 184 180 171 172 177 163 159 192 162 178 175 171 182 179 176 178 174 158 147 149 144 148 158 156 152 146 140 133 108 114 115 97 133 114 95 113 20 16 159 209 237 187 244 309 291 203 235 338 183 199 230 274 265 279 324 94 171 185 226 238 225 223 222 221 221 217 222 224
242 242 243 244 242 241 240 238 242 242 242 242 241 243 239 243 241 217 200 188 178 172 168 171 172 162 147 150 154 177 169 163 177 176 174 181 181 160 143 133 119 121 122 124 136 132 115 105 94 135 94 101 153 137 148 187 194 45 190 213 229 191 184 285 288 360 16 18 251 233 231 245 267 280 291 241 174 179 222 241 234 226 230 228 229 230 228 226
244 246 248 249 247 245 243 240 240 241 244 242 242 244 239 244 236 213 194 179 169 167 171 172 163 162 226 176 162 162 154 155 165 169 170 177 175 160 145 130 121 118 110 109 128 112 70 57 94 128 113 144 159 168 188 195 178 181 192 193 237 212 178 280 259 344 11 15 272 270 259 252 269 277 262 226 170 188 222 236 235 226 224 222 226 232 230 231
245 251 254 254 251 249 247 242 240 239 242 243 242 242 239 247 240 210 184 167 163 169 168 161 164 170 183 167 140 127 149 155 157 165 169 166 162 153 140 133 129 124 126 131 141 136 126 94 110 162 166 175 180 191 195 184 175 179 176 165 164 192 229 254 249 287 20 17 267 248 250 257 264 269 263 244 154 203 243 257 248 234 227 223 222 230 230 231
245 250 257 259 254 251 248 242 240 237 238 239 233 230 230 229 235 211 178 165 178 186 159 160 168 146 91 128 120 123 144 152 152 167 171 163 153 140 130 134 124 119 150 148 149 157 148 150 183 186 173 180 187 189 173 153 154 149 140 161 171 194 247 253 250 296 66 83 272 241 239 257 254 260 265 257 149 220 248 249 245 238 230 226 223 229 229 231
248 249 254 259 256 252 248 241 238 234 234 235 224 218 212 206 219 204 166 174 190 182 155 160 157 115 105 130 133 134 136 150 153 169 171 164 153 145 152 157 143 151 156 132 128 121 158 182 191 185 173 177 183 168 139 135 132 130 141 166 180 201 249 250 238 307 22 145 272 285 268 262 255 258 264 251 194 229 236 229 239 238 233 231 228 231 230 233
252 252 250 253 253 250 246 238 235 231 230 229 222 221 222 222 237 194 164 177 194 183 151 155 148 95 115 137 148 147 131 140 150 169 175 168 163 167 179 167 157 156 140 123 118 132 184 199 182 176 167 161 171 160 143 142 129 116 125 144 183 207 275 277 258 326 1 157 265 306 296 268 260 258 263 255 232 239 233 222 230 227 227 229 226 232 233 236
256 258 252 250 248 246 242 235 233 228 224 222 217 223 223 226 243 218 175 161 190 210 165 160 155 136 130 141 159 153 143 162 159 173 181 175 174 176 169 166 158 142 149 157 152 158 185 204 175 163 152 148 157 155 137 123 107 107 124 138 193 199 173 262 284 326 321 201 268 301 299 276 265 261 262 252 235 247 243 232 234 223 221 227 225 228 228 228
263 261 256 249 244 244 241 235 232 225 221 220 221 227 223 225 235 208 175 73 167 244 187 167 160 154 146 146 166 164 160 168 164 171 177 176 166 158 167 164 148 145 168 171 162 162 167 176 152 137 144 151 150 155 148 141 145 166 165 156 170 171 166 208 284 321 327 342 330 340 314 278 251 247 256 253 225 248 249 242 245 237 228 234 244 241 226 224
265 263 258 250 245 247 245 238 230 224 221 220 226 229 222 224 226 196 172 8 179 187 179 168 157 157 145 140 162 169 145 148 170 170 175 178 162 148 163 160 147 162 170 162 157 161 167 167 145 138 151 154 152 172 170 165 169 202 220 186 171 165 157 161 348 3 359 324 330 39 312 274 276 259 260 283 273 250 250 240 242 243 235 232 246 245 232 232
265 267 263 252 249 248 248 239 224 222 219 222 226 225 219 220 219 198 187 308 196 224 170 164 158 162 153 141 150 145 147 168 168 160 171 181 174 155 153 152 45 163 160 151 152 168 155 136 137 145 154 152 161 188 190 170 151 207 224 168 151 148 132 96 45 54 209 258 278 85 198 267 306 286 261 274 272 264 263 252 249 252 248 230 232 239 235 235
265 270 265 257 251 244 243 230 219 215 211 225 223 218 216 214 209 198 209 245 204 187 161 163 164 166 165 155 148 146 169 158 114 160 177 182 181 162 155 162 128 151 158 137 164 200 134 130 130 144 150 161 178 191 191 168 143 210 197 143 134 136 139 132 91 105 217 272 308 66 132 263 288 274 261 271 271 270 266 265 268 260 257 247 235 238 235 233
266 270 266 262 253 245 245 233 212 201 214 221 213 209 210 204 199 196 219 225 186 140 151 148 145 158 157 149 150 148 152 140 136 175 184 178 182 110 158 175 155 153 162 155 180 223 128 158 170 161 160 182 188 164 159 156 148 224 178 146 148 144 144 137 108 133 221 357 311 346 95 265 268 268 296 312 257 260 262 266 268 255 252 249 240 240 238 238
267 269 268 265 260 259 255 235 206 202 217 214 203 202 198 189 193 202 232 214 146 124 150 137 144 148 141 143 151 137 125 137 143 158 161 173 178 81 153 174 141 140 131 112 156 144 133 185 172 154 164 190 175 150 157 163 169 182 146 114 96 100 88 93 109 110 56 325 255 192 146 257 270 253 252 290 248 253 259 262 258 247 243 246 244 243 240 241
268 270 270 267 265 263 253 228 209 211 212 204 194 190 179 178 199 217 216 193 112 148 158 138 155 148 145 148 142 139 142 136 116 123 123 180 96 62 108 93 95 123 69 40 92 56 329 326 132 141 170 172 148 125 157 164 143 124 123 95 78 59 37 49 67 72 37 276 233 185 174 192 278 257 203 217 221 222 230 244 254 247 243 245 244 243 241 244
270 271 270 266 262 254 240 209 207 209 202 189 181 170 162 182 224 225 219 166 105 171 160 138 149 148 153 153 139 148 142 122 141 139 149 167 117 107 124 109 82 107 93 61 60 357 20 71 139 223 175 127 110 74 25 108 134 127 126 125 107 33 19 24 3 55 221 243 192 210 179 159 235 254 200 236 243 227 228 230 243 246 247 248 246 250 254 255
273 272 271 266 262 249 220 197 201 197 183 175 168 158 165 204 220 220 198 147 167 179 156 145 152 153 156 153 147 152 141 137 158 153 157 158 150 156 155 161 159 138 167 176 146 39 45 136 220 298 260 143 127 118 34 55 153 144 136 140 125 69 57 184 237 175 227 246 166 207 145 165 243 255 259 260 259 250 234 223 239 253 262 270 276 286 287 278
275 276 272 266 264 242 208 198 193 180 170 167 162 161 188 211 227 183 137 175 185 158 152 150 156 156 153 153 155 149 140 149 163 158 154 147 150 161 148 157 157 135 162 165 144 129 104 305 252 145 261 197 150 150 148 167 182 165 152 156 150 141 161 200 203 209 248 263 279 183 130 256 270 278 251 246 253 255 241 228 242 254 262 270 284 296 298 291
277 275 270 266 260 227 201 193 181 169 164 162 161 180 191 215 243 126 143 190 144 141 155 149 150 155 154 155 156 150 142 159 165 157 149 144 153 165 163 180 172 107 99 147 157 167 161 262 214 171 185 187 163 163 149 135 155 170 146 140 151 155 172 191 184 201 221 243 289 249 164 211 236 271 239 229 255 279 274 257 256 260 261 269 287 291 284 275
278 274 270 261 239 209 193 183 172 167 161 159 176 192 196 208 201 141 162 159 136 143 147 144 146 151 155 150 153 158 148 166 164 155 157 162 169 176 175 184 179 137 127 158 174 173 167 233 230 186 175 166 163 169 134 117 133 226 102 118 207 183 142 149 186 185 168 179 246 217 234 222 212 270 274 256 270 285 275 274 278 274 272 277 281 279 275 271
278 275 265 235 205 192 185 175 168 166 160 162 187 197 203 201 178 188 168 148 150 143 137 148 152 147 148 141 158 163 68 154 161 153 167 170 171 181 176 180 179 164 158 157 142 160 163 222 330 10 145 171 166 167 160 146 153 172 176 185 193 150 121 121 220 109 96 203 245 210 252 287 313 286 279 274 274 276 275 279 276 272 286 300 272 265 269 273
275 268 240 201 189 183 178 170 166 165 164 172 189 198 204 202 163 167 168 156 152 146 145 154 160 151 144 138 166 158 122 144 160 151 163 171 178 186 183 188 181 175 176 151 112 181 150 103 339 28 150 209 201 140 150 153 137 147 186 190 129 92 92 106 174 354 61 235 271 252 247 279 301 272 314 350 306 278 277 278 278 287 302 296 280 284 283 272
268 242 199 187 184 176 171 168 165 165 168 175 190 197 198 201 174 167 174 160 151 154 155 152 153 156 150 147 157 158 148 153 166 158 160 177 203 188 182 187 178 180 186 140 113 179 130 101 326 324 155 243 11 121 139 335 41 133 184 186 141 138 197 139 163 189 142 239 282 294 280 268 211 233 308 319 280 262 269 272 279 292 288 274 283 296 298 295
255 219 188 180 176 170 166 165 163 168 176 177 190 195 187 164 168 177 177 161 154 158 156 150 146 142 158 156 150 162 165 162 167 165 167 185 211 191 184 181 167 179 182 138 137 163 111 114 216 292 196 170 94 153 171 177 50 53 127 182 164 135 166 168 169 158 150 195 264 305 319 274 224 213 229 250 253 245 259 278 277 262 259 259 277 287 294 302
223 191 166 168 167 164 161 160 163 178 178 180 188 185 160 144 166 183 181 163 157 163 155 155 150 140 156 157 150 164 168 161 170 172 174 179 173 195 191 175 150 169 172 146 146 134 83 114 140 216 311 169 186 198 180 171 165 152 159 180 193 181 142 147 165 138 132 157 195 290 299 265 243 205 197 234 255 244 251 276 276 262 269 271 271 275 284 296
185 187 158 160 159 157 155 157 175 176 168 188 188 174 154 160 158 176 189 172 158 160 148 158 158 147 148 153 158 169 157 156 174 174 170 178 169 200 197 172 153 159 156 146 154 149 93 106 130 148 163 185 224 246 186 183 188 175 174 188 186 176 139 125 200 274 84 158 173 181 269 268 249 203 201 223 243 246 258 285 285 289 307 297 283 276 276 286
177 183 151 155 156 154 152 161 173 168 182 187 172 138 145 167 157 168 189 185 163 127 115 152 162 152 148 156 162 166 156 159 179 180 179 186 183 188 173 152 149 157 151 136 154 161 121 101 114 139 185 204 245 275 206 196 189 155 167 196 164 161 143 131 182 233 137 210 159 115 264 272 254 211 211 222 244 279 304 300 287 289 292 283 286 293 288 283
169 151 146 154 156 155 156 171 164 170 188 170 143 136 155 166 167 167 173 179 184 165 132 137 152 153 155 157 155 159 161 162 180 182 147 164 186 183 152 145 145 157 158 142 157 157 101 99 107 103 290 297 321 329 24 35 113 153 224 149 138 177 174 138 169 177 157 210 154 95 263 259 259 234 226 241 285 312 269 230 246 268 282 274 274 289 292 288
154 138 140 155 160 160 164 173 164 165 173 165 157 159 156 162 177 172 167 171 180 160 147 144 153 160 157 153 154 162 163 159 185 190 110 133 175 157 152 151 154 164 171 162 166 162 109 129 135 119 105 351 347 320 270 227 160 170 185 158 166 181 169 153 153 147 218 207 164 157 243 243 269 311 308 306 340 321 273 242 219 238 266 275 277 292 294 294
151 136 127 155 163 167 176 175 164 156 161 167 166 159 150 160 194 183 167 164 174 165 156 156 156 150 143 148 153 162 166 160 172 174 121 113 134 148 160 162 166 170 164 148 154 144 131 157 153 140 152 180 193 206 210 176 155 176 183 182 191 188 179 176 142 165 224 201 167 196 234 257 321 321 324 330 350 335 297 284 264 246 253 265 274 283 287 293
158 141 134 145 161 175 184 173 168 158 155 161 163 163 158 154 199 202 174 165 181 169 155 151 147 136 141 153 151 163 173 108 104 158 162 152 148 200 177 169 166 165 150 146 149 128 110 167 190 178 177 182 184 183 134 129 150 194 195 188 194 192 186 178 145 188 207 157 182 220 229 272 305 287 291 305 313 304 288 277 267 255 254 262 262 268 281 291
164 154 156 149 151 178 182 178 179 169 156 159 160 168 163 153 166 205 196 193 195 158 139 141 143 139 151 157 153 164 165 98 96 156 162 154 123 96 169 167 160 159 152 150 159 138 116 185 200 184 178 159 138 148 141 147 173 191 184 184 191 188 184 188 205 207 151 127 231 225 199 233 257 255 267 283 293 292 289 282 274 272 270 261 256 271 287 288
179 155 161 156 147 167 178 177 178 170 161 162 158 160 167 162 165 183 201 249 180 161 140 145 159 160 160 160 157 161 160 136 137 155 147 142 130 124 160 179 179 171 162 161 178 163 141 189 190 161 139 27 70 135 157 162 176 178 175 185 189 187 189 199 215 207 149 196 235 181 154 215 230 228 245 257 272 283 291 300 300 302 296 279 268 272 273 271
151 115 144 157 147 160 164 156 164 172 169 167 162 165 171 168 168 172 170 147 171 175 155 151 165 166 161 162 159 158 164 161 166 176 166 160 158 151 158 182 215 191 168 164 184 188 139 173 169 135 123 35 43 108 153 156 156 165 185 192 191 195 199 204 214 208 194 229 237 144 203 247 227 210 231 235 251 272 294 304 293 289 288 287 287 287 283 284
160 140 144 143 140 157 157 151 159 170 172 171 172 177 175 171 169 168 166 162 165 171 161 155 163 168 167 166 164 170 179 180 178 178 166 156 162 166 167 172 167 161 158 162 180 314 90 140 83 103 98 26 17 55 83 136 162 176 200 207 205 206 207 211 217 208 218 241 246 301 286 270 221 202 227 242 294 294 286 280 274 265 267 275 281 284 286 288
226 136 150 148 148 156 157 157 162 164 172 178 177 175 178 177 170 163 174 183 170 165 166 162 163 168 170 171 178 187 189 187 179 169 161 161 168 171 171 162 149 149 148 156 166 88 87 139 76 94 108 267 265 94 84 106 130 177 228 223 212 206 206 212 215 200 212 232 231 240 261 257 201 189 211 217 250 259 262 265 266 261 258 259 265 272 277 277
181 28 120 141 146 157 158 157 164 167 171 176 173 171 174 178 173 165 170 206 196 180 175 168 165 164 169 182 191 192 180 167 150 144 149 151 150 150 148 147 152 154 150 151 158 117 121 138 126 123 150 207 188 144 135 117 106 249 244 220 201 198 196 199 214 213 211 214 204 220 242 238 169 164 184 203 226 239 247 250 253 258 260 256 255 260 268 271